Погода в Актогае

Казахстан     53°00′33″N   75°58′51″E
темп.,
°C
ветер,
м/с
пор.,
м/с
влажн.,
%
обл.,
%
осадки,
мм/ч
давл.,
гПа
погр.,
м
2 марта, вт
вт200:00−11зсз359699 0.2 101493
03:00−16з449649 0.0 101764
06:00−18з349762 0.0 101845
09:00−18з339771 0.0 101959
12:00−14зюз339175 0.0 1018243
15:00−13юз338999 0.0 1017316
18:00−15з229498 0.0 101720
21:00−16юз229598 0.0 101720
3 марта, ср
ср300:00−17юз229688 0.0 101720
03:00−15юз239686 0.1 101740
06:00−14юз369684 0.1 1018151
09:00−14зюз599390 0.1 1019347
12:00−14юз698977 0.1 1020377
15:00−12ююз6108747 0.0 1019524
18:00−12ююз5118845 0.0 1019301
21:00−10ююз6128799 0.0 1019395
4 марта, чт
чт400:00−10ююз6128799 0.0 1018316
03:00−9ююз61288100 0.0 1017318
06:00−7ююз61487100 0.0 1017467
09:00−5ююз71586100 0.0 1015587
12:00−2ююз81384100 0.0 1015757
15:00−1ююз91482100 0.0 1014784
18:00−2ююз71580100 0.0 1013633
21:00−3ююз71782100 0.0 1012570
5 марта, пт
пт500:00−3ююз8148599 0.0 1011602
03:00−2ююз71586100 0.0 1009590
06:00−4юз6149093 0.0 1010415
09:00−5з7138799 0.1 1014707
12:00−6зюз7128454 0.1 1018517
15:00−6юз815815 0.0 1020570
18:00−5юз9177838 0.0 1019852
21:00−5юз101980100 0.0 1019822
6 марта, сб
сб600:00−5юз91780100 0.0 1019863
03:00−6юз91880100 0.0 1018810
06:00−7юз81782100 0.0 1018752
09:00−7юз9178393 0.0 1017681
12:00−5зюз10168596 0.0 1017745
15:00−4зюз91487100 0.0 1017750
18:00−3зюз61190100 0.1 1018722
21:00−5зюз4992100 0.0 1019204